Theta_e
359 362 361 357 353 347 349 350 364 360 359 358 363 365 363 361 362 367 359 360 360 352
357 357 359 359 357 350 361 357 360 360 358 359 362 362 365 358 360 360 358 360 360 355
356 357 359 363 358 360 361 353 366 362 358 361 361 361 369 363 362 360 357 353 366 360
354 355 357 356 358 355 357 362 361 363 362 361 362 362 366 367 364 361 360 359 359 357
354 355 354 354 354 355 356 360 361 362 361 362 361 367 362 359 354 357 357 357 359 356
353 352 352 353 355 354 359 361 358 364 363 363 360 361 361 362 359 357 359 357 358 357
353 354 351 354 358 355 362 362 363 364 364 361 362 359 358 358 359 360 357 358 360 357
360 359 360 361 360 360 361 361 364 361 362 362 357 354 360 362 358 361 358 358 356 358
363 363 361 362 361 364 362 365 364 361 359 357 352 343 342 353 357 358 357 355 358 359
364 360 362 362 363 363 361 364 364 361 361 360 359 337 340 342 353 353 356 356 355 354
363 360 362 363 363 364 363 363 361 361 360 358 356 336 333 340 350 351 353 352 355 357
360 364 362 360 361 362 361 362 361 360 363 359 358 331 331 338 349 349 353 356 359 359
365 363 362 362 364 365 361 360 354 355 357 344 351 329 328 332 352 354 351 362 362 341
363 366 366 367 365 362 356 355 356 356 356 353 350 353 329 325 354 351 348 343 341 345
Wind_Speed
10 6 7 11 7 10 8 7 13 9 8 9 9 6 4 4 5 7 6 4 5 6
10 9 8 11 7 9 6 7 11 11 10 9 7 6 8 6 9 8 2 6 5 6
12 11 8 9 10 9 9 3 10 11 11 10 8 7 5 7 7 5 6 7 8 4
13 13 10 10 9 8 8 9 9 8 10 10 10 10 9 9 1 7 5 6 4 4
13 13 14 12 13 11 9 9 9 9 9 10 9 9 9 10 9 9 9 8 8 7
15 14 13 13 13 13 11 10 11 11 10 10 8 7 8 10 10 10 10 9 9 10
15 14 14 13 11 13 10 10 11 10 9 10 11 10 9 10 8 9 10 10 10 9
12 12 11 11 12 11 12 11 10 9 9 10 9 10 12 10 8 9 8 9 9 11
13 12 12 11 11 11 12 11 10 10 10 10 10 7 8 5 6 7 8 8 8 11
13 13 12 12 11 12 12 11 11 11 10 11 11 7 8 6 7 8 7 7 7 8
15 14 13 13 13 12 11 11 11 11 11 11 9 9 7 5 7 9 10 9 10 9
14 14 15 14 13 12 11 10 10 10 10 10 6 10 9 7 10 10 11 10 9 9
15 14 14 13 11 11 10 9 5 7 9 6 6 9 11 10 9 9 6 7 9 13
14 14 13 12 11 11 7 7 10 8 8 5 9 7 9 11 10 7 6 7 6 1
Wind_Direction
181 200 195 184 214 186 169 178 150 181 186 174 178 189 167 218 210 199 191 192 285 289
188 186 202 203 213 195 150 122 161 172 183 178 191 200 170 210 238 197 238 188 219 257
182 183 185 217 195 209 149 88 157 172 186 178 197 200 237 249 188 198 252 234 163 250
183 183 177 191 210 203 188 179 169 189 191 195 194 202 205 258 252 217 239 278 283 244
189 185 182 190 195 196 195 192 205 199 213 210 214 211 221 227 255 222 232 239 249 258
187 191 192 194 186 190 200 182 206 203 210 219 224 215 222 235 241 254 235 243 243 243
190 188 195 188 198 188 181 194 211 203 205 211 215 225 231 235 227 252 245 231 243 256
188 189 194 188 187 198 185 197 197 210 208 222 219 218 217 241 241 232 277 277 269 256
184 185 187 191 185 199 196 198 197 205 209 217 231 115 119 194 243 281 258 258 261 282
180 187 189 190 193 197 206 192 216 207 218 219 229 152 130 145 237 243 228 233 259 268
182 185 189 191 197 199 203 205 204 217 219 225 214 157 165 173 252 252 255 267 254 236
186 183 182 192 197 201 210 207 205 218 221 224 210 175 176 194 251 237 234 248 273 270
183 186 184 183 191 199 199 209 195 201 216 221 204 181 205 197 251 239 254 254 237 227
188 188 183 180 174 189 167 191 209 214 222 219 223 222 201 210 243 263 241 257 254 292